SUR4097 SACO-SASA

Flight info

Callsign SUR4097
Flight time 1h 10m
Altitude 38000
Route DONKA1G DONKA UW5 TUC/N0438F390 UT675 ILPAR
Aircraft A20N/M-SDE2E3FGHIRWXY/LB1

Departure

Time 2026-04-25 21:10
Airport Ingeniero Aeronáutico Ambrosio L.V. Taravella International Airport (SACO)

Arrival

Time 2026-04-25 22:20
Airport Martín Miguel de Güemes International Airport (SASA)
Time Latitude Longitude Altitude Speed Heading
2026-04-25 20:51 -31.31505 -64.21165 1613 ft 0 kts 270°
2026-04-25 20:58 -31.31505 -64.21152 1613 ft 2 kts 270°
2026-04-25 20:58 -31.31505 -64.21134 1613 ft 2 kts 270°
2026-04-25 20:59 -31.31505 -64.21117 1613 ft 2 kts 270°
2026-04-25 20:59 -31.31505 -64.21099 1613 ft 2 kts 270°
2026-04-25 20:59 -31.31508 -64.21083 1613 ft 2 kts 311°
2026-04-25 20:59 -31.31520 -64.21074 1613 ft 2 kts 355°
2026-04-25 21:00 -31.31536 -64.21075 1613 ft 2 kts
2026-04-25 21:00 -31.31541 -64.21075 1613 ft 2 kts 359°
2026-04-25 21:00 -31.31546 -64.21075 1613 ft 0 kts 360°
2026-04-25 21:03 -31.31545 -64.21075 1613 ft 0 kts 360°
2026-04-25 21:03 -31.31531 -64.21075 1613 ft 3 kts
2026-04-25 21:03 -31.31504 -64.21060 1613 ft 5 kts 37°
2026-04-25 21:04 -31.31471 -64.21022 1613 ft 7 kts 63°
2026-04-25 21:04 -31.31464 -64.20956 1613 ft 7 kts 89°
2026-04-25 21:04 -31.31458 -64.20896 1613 ft 8 kts 70°
2026-04-25 21:04 -31.31415 -64.20847 1613 ft 9 kts 31°
2026-04-25 21:05 -31.31343 -64.20825 1613 ft 11 kts
2026-04-25 21:05 -31.31257 -64.20828 1613 ft 13 kts 358°
2026-04-25 21:05 -31.31160 -64.20831 1613 ft 14 kts 359°
2026-04-25 21:05 -31.31055 -64.20833 1613 ft 15 kts 359°
2026-04-25 21:06 -31.30943 -64.20835 1613 ft 16 kts 360°
2026-04-25 21:06 -31.30822 -64.20837 1613 ft 17 kts 359°
2026-04-25 21:06 -31.30697 -64.20839 1613 ft 18 kts 359°
2026-04-25 21:06 -31.30655 -64.20840 1613 ft 18 kts 359°
2026-04-25 21:07 -31.30433 -64.20843 1613 ft 19 kts 359°
2026-04-25 21:07 -31.30296 -64.20845 1613 ft 20 kts 359°
2026-04-25 21:07 -31.30154 -64.20847 1613 ft 20 kts 359°
2026-04-25 21:07 -31.30014 -64.20851 1613 ft 20 kts 359°
2026-04-25 21:08 -31.29873 -64.20853 1613 ft 20 kts 359°
2026-04-25 21:08 -31.29756 -64.20856 1613 ft 14 kts 358°
2026-04-25 21:08 -31.29683 -64.20861 1613 ft 8 kts 349°
2026-04-25 21:08 -31.29625 -64.20882 1613 ft 9 kts 341°
2026-04-25 21:09 -31.29630 -64.20858 1613 ft 8 kts 175°
2026-04-25 21:09 -31.29954 -64.20850 1613 ft 86 kts 180°
2026-04-25 21:09 -31.30810 -64.20834 1619 ft 152 kts 178°
2026-04-25 21:10 -31.31916 -64.20787 2117 ft 166 kts 179°
2026-04-25 21:10 -31.33085 -64.20654 2818 ft 174 kts 166°
2026-04-25 21:10 -31.34129 -64.19977 3624 ft 176 kts 135°
2026-04-25 21:10 -31.34790 -64.18749 4226 ft 188 kts 107°
2026-04-25 21:11 -31.35045 -64.17151 4675 ft 212 kts 98°
2026-04-25 21:11 -31.35310 -64.15415 5324 ft 226 kts 104°
2026-04-25 21:11 -31.35861 -64.13610 5876 ft 247 kts 114°
2026-04-25 21:11 -31.36607 -64.11792 6774 ft 252 kts 117°
2026-04-25 21:12 -31.37353 -64.09937 7698 ft 257 kts 107°
2026-04-25 21:12 -31.37405 -64.07889 8568 ft 259 kts 72°
2026-04-25 21:12 -31.36541 -64.06081 9437 ft 259 kts 43°
2026-04-25 21:12 -31.36104 -64.05611 9704 ft 259 kts 33°
2026-04-25 21:13 -31.33312 -64.04707 10981 ft 256 kts 347°
2026-04-25 21:13 -31.31678 -64.05417 11758 ft 251 kts 320°
2026-04-25 21:13 -31.30519 -64.06869 12556 ft 246 kts 295°
2026-04-25 21:13 -31.30029 -64.08732 13384 ft 243 kts 271°
2026-04-25 21:14 -31.30278 -64.10657 14212 ft 244 kts 250°
2026-04-25 21:14 -31.30941 -64.12479 15048 ft 245 kts 254°
2026-04-25 21:14 -31.31189 -64.14407 15883 ft 243 kts 269°
2026-04-25 21:14 -31.31227 -64.16379 16768 ft 242 kts 268°
2026-04-25 21:15 -31.31166 -64.18321 17579 ft 243 kts 281°
2026-04-25 21:15 -31.30466 -64.20101 18382 ft 250 kts 300°
2026-04-25 21:15 -31.29167 -64.21517 18968 ft 271 kts 319°
2026-04-25 21:15 -31.27424 -64.22607 19337 ft 290 kts 323°
2026-04-25 21:16 -31.25566 -64.23723 19642 ft 308 kts 324°
2026-04-25 21:16 -31.23597 -64.24892 19942 ft 324 kts 324°
2026-04-25 21:16 -31.21547 -64.26099 20412 ft 334 kts 324°
2026-04-25 21:16 -31.19453 -64.27316 21087 ft 337 kts 324°
2026-04-25 21:17 -31.17356 -64.28534 21786 ft 338 kts 324°
2026-04-25 21:17 -31.15251 -64.29759 22468 ft 340 kts 323°
2026-04-25 21:17 -31.13124 -64.31000 23095 ft 343 kts 323°
2026-04-25 21:17 -31.10973 -64.32258 23742 ft 346 kts 323°
2026-04-25 21:18 -31.08822 -64.33510 24383 ft 348 kts 323°
2026-04-25 21:18 -31.06665 -64.34769 24961 ft 351 kts 323°
2026-04-25 21:18 -31.04452 -64.36055 25576 ft 354 kts 323°
2026-04-25 21:18 -31.02141 -64.37122 26119 ft 368 kts 331°
2026-04-25 21:19 -30.99581 -64.37795 26666 ft 383 kts 340°
2026-04-25 21:19 -30.96862 -64.38032 27217 ft 394 kts 346°
2026-04-25 21:19 -30.94126 -64.38107 27749 ft 397 kts 346°
2026-04-25 21:19 -30.91378 -64.38161 28231 ft 400 kts 346°
2026-04-25 21:20 -30.88562 -64.38216 28693 ft 402 kts 346°
2026-04-25 21:20 -30.87620 -64.38236 28840 ft 403 kts 346°
2026-04-25 21:20 -30.82939 -64.38340 29548 ft 407 kts 346°
2026-04-25 21:20 -30.80096 -64.38406 29961 ft 407 kts 345°
2026-04-25 21:21 -30.77263 -64.38470 30351 ft 408 kts 345°
2026-04-25 21:21 -30.74352 -64.38539 30655 ft 411 kts 345°
2026-04-25 21:21 -30.71477 -64.38609 31033 ft 411 kts 345°
2026-04-25 21:21 -30.68619 -64.38674 31428 ft 411 kts 344°
2026-04-25 21:22 -30.65729 -64.38742 31722 ft 413 kts 344°
2026-04-25 21:22 -30.62854 -64.38812 32007 ft 414 kts 343°
2026-04-25 21:22 -30.59996 -64.38876 32420 ft 412 kts 343°
2026-04-25 21:22 -30.57140 -64.38940 32836 ft 410 kts 343°
2026-04-25 21:23 -30.54271 -64.39005 33289 ft 407 kts 342°
2026-04-25 21:23 -30.51454 -64.39072 33742 ft 405 kts 342°
2026-04-25 21:23 -30.48590 -64.39140 34158 ft 404 kts 342°
2026-04-25 21:23 -30.45798 -64.39206 34577 ft 403 kts 342°
2026-04-25 21:24 -30.42991 -64.39324 35016 ft 396 kts 339°
2026-04-25 21:24 -30.40282 -64.39593 35461 ft 387 kts 336°
2026-04-25 21:24 -30.37637 -64.40024 35814 ft 381 kts 333°
2026-04-25 21:24 -30.35048 -64.40572 36108 ft 379 kts 333°
2026-04-25 21:25 -30.32454 -64.41129 36436 ft 379 kts 332°
2026-04-25 21:25 -30.29845 -64.41689 36708 ft 379 kts 333°
2026-04-25 21:25 -30.27265 -64.42239 36936 ft 381 kts 333°
2026-04-25 21:25 -30.24664 -64.42800 37161 ft 382 kts 333°
2026-04-25 21:26 -30.22021 -64.43362 37375 ft 383 kts 332°
2026-04-25 21:26 -30.19399 -64.43926 37540 ft 385 kts 333°
2026-04-25 21:26 -30.16758 -64.44492 37740 ft 386 kts 333°
2026-04-25 21:26 -30.14111 -64.45055 37944 ft 387 kts 333°
2026-04-25 21:27 -30.08783 -64.46192 38009 ft 388 kts 333°
2026-04-25 21:27 -30.03443 -64.47329 38004 ft 389 kts 333°
2026-04-25 21:28 -29.98097 -64.48466 38000 ft 389 kts 333°
2026-04-25 21:28 -29.92762 -64.49584 37993 ft 390 kts 334°
2026-04-25 21:29 -29.87350 -64.50601 37989 ft 391 kts 334°
2026-04-25 21:29 -29.81961 -64.51614 37984 ft 391 kts 334°
2026-04-25 21:30 -29.76579 -64.52634 37981 ft 390 kts 334°
2026-04-25 21:30 -29.72093 -64.53481 37979 ft 390 kts 334°
2026-04-25 21:31 -29.65825 -64.54667 37976 ft 392 kts 334°
2026-04-25 21:31 -29.60424 -64.55690 37975 ft 391 kts 334°
2026-04-25 21:32 -29.55096 -64.56806 37975 ft 387 kts 333°
2026-04-25 21:32 -29.49791 -64.57976 37976 ft 389 kts 333°
2026-04-25 21:33 -29.44458 -64.59149 37974 ft 389 kts 333°
2026-04-25 21:33 -29.39126 -64.60315 37974 ft 389 kts 334°
2026-04-25 21:34 -29.33786 -64.61481 37972 ft 390 kts 334°
2026-04-25 21:34 -29.28397 -64.62653 37973 ft 390 kts 334°
2026-04-25 21:35 -29.23053 -64.63815 37968 ft 389 kts 334°
2026-04-25 21:35 -29.17720 -64.64973 37970 ft 391 kts 334°
2026-04-25 21:36 -29.12301 -64.66149 37972 ft 392 kts 334°
2026-04-25 21:36 -29.06930 -64.67314 37971 ft 392 kts 334°
2026-04-25 21:37 -29.03332 -64.68095 37972 ft 393 kts 335°
2026-04-25 21:37 -28.96173 -64.69643 37971 ft 394 kts 335°
2026-04-25 21:38 -28.90765 -64.70814 37973 ft 392 kts 335°
2026-04-25 21:38 -28.85326 -64.71987 37971 ft 393 kts 335°
2026-04-25 21:39 -28.79918 -64.73155 37975 ft 395 kts 335°
2026-04-25 21:39 -28.74513 -64.74320 37972 ft 396 kts 335°
2026-04-25 21:40 -28.69099 -64.75487 37968 ft 394 kts 335°
2026-04-25 21:40 -28.63649 -64.76659 37973 ft 395 kts 335°
2026-04-25 21:41 -28.58184 -64.77714 37978 ft 399 kts 337°
2026-04-25 21:41 -28.52694 -64.78725 37981 ft 400 kts 337°
2026-04-25 21:42 -28.47214 -64.79742 37984 ft 400 kts 338°
2026-04-25 21:42 -28.41669 -64.80772 37986 ft 400 kts 337°
2026-04-25 21:43 -28.36214 -64.81786 37984 ft 400 kts 338°
2026-04-25 21:43 -28.30715 -64.82809 37990 ft 400 kts 337°
2026-04-25 21:44 -28.25186 -64.83840 37985 ft 401 kts 337°
2026-04-25 21:45 -28.16881 -64.85382 37996 ft 401 kts 338°
2026-04-25 21:45 -28.11378 -64.86404 38005 ft 402 kts 338°
2026-04-25 21:46 -28.05841 -64.87432 38004 ft 402 kts 338°
2026-04-25 21:46 -28.00298 -64.88457 38014 ft 401 kts 338°
2026-04-25 21:47 -27.94794 -64.89475 38009 ft 402 kts 338°
2026-04-25 21:47 -27.89257 -64.90501 38003 ft 403 kts 338°
2026-04-25 21:48 -27.83614 -64.91545 38008 ft 403 kts 339°
2026-04-25 21:48 -27.78025 -64.92574 38001 ft 405 kts 338°
2026-04-25 21:49 -27.72449 -64.93621 38003 ft 404 kts 338°
2026-04-25 21:49 -27.66889 -64.94718 37999 ft 404 kts 338°
2026-04-25 21:50 -27.61331 -64.95816 37987 ft 405 kts 338°
2026-04-25 21:50 -27.55734 -64.96919 37987 ft 407 kts 338°
2026-04-25 21:51 -27.50107 -64.98025 37983 ft 407 kts 338°
2026-04-25 21:51 -27.44503 -64.99127 37988 ft 409 kts 339°
2026-04-25 21:52 -27.38887 -65.00227 37994 ft 410 kts 339°
2026-04-25 21:52 -27.33246 -65.01334 37993 ft 410 kts 339°
2026-04-25 21:53 -27.27608 -65.02437 37997 ft 410 kts 339°
2026-04-25 21:53 -27.21968 -65.03540 38000 ft 411 kts 339°
2026-04-25 21:54 -27.16308 -65.04646 37989 ft 411 kts 339°
2026-04-25 21:54 -27.10621 -65.05757 37984 ft 412 kts 339°
2026-04-25 21:55 -27.04945 -65.06866 37990 ft 414 kts 339°
2026-04-25 21:55 -26.99286 -65.07970 37994 ft 413 kts 340°
2026-04-25 21:56 -26.93586 -65.09081 38002 ft 414 kts 340°
2026-04-25 21:56 -26.87997 -65.10144 38006 ft 414 kts 341°
2026-04-25 21:57 -26.82172 -65.10733 38008 ft 424 kts 348°
2026-04-25 21:57 -26.76231 -65.10718 38014 ft 429 kts 350°
2026-04-25 21:58 -26.70231 -65.10628 37909 ft 426 kts 351°
2026-04-25 21:58 -26.67282 -65.10586 37151 ft 431 kts 350°
2026-04-25 21:58 -26.64257 -65.10551 36014 ft 439 kts 351°
2026-04-25 21:58 -26.61213 -65.10512 35150 ft 440 kts 351°
2026-04-25 21:59 -26.58147 -65.10465 34470 ft 438 kts 351°
2026-04-25 21:59 -26.55109 -65.10418 33780 ft 436 kts 351°
2026-04-25 21:59 -26.52066 -65.10372 33114 ft 434 kts 351°
2026-04-25 22:00 -26.46024 -65.10287 31832 ft 433 kts 351°
2026-04-25 22:00 -26.43039 -65.10247 31309 ft 428 kts 351°
2026-04-25 22:00 -26.40072 -65.10202 30910 ft 421 kts 352°
2026-04-25 22:00 -26.37178 -65.10159 30461 ft 417 kts 352°
2026-04-25 22:01 -26.34271 -65.10119 30022 ft 411 kts 352°
2026-04-25 22:01 -26.31423 -65.10077 29602 ft 407 kts 352°
2026-04-25 22:01 -26.28603 -65.10038 29136 ft 403 kts 351°
2026-04-25 22:01 -26.27666 -65.10025 28985 ft 402 kts 351°
2026-04-25 22:02 -26.23031 -65.09963 28229 ft 395 kts 352°
2026-04-25 22:02 -26.20293 -65.09924 27798 ft 391 kts 352°
2026-04-25 22:02 -26.17583 -65.09888 27350 ft 388 kts 352°
2026-04-25 22:02 -26.14921 -65.09853 26889 ft 385 kts 352°
2026-04-25 22:03 -26.12246 -65.09816 26432 ft 382 kts 352°
2026-04-25 22:03 -26.09583 -65.09781 25966 ft 380 kts 352°
2026-04-25 22:03 -26.06956 -65.09744 25500 ft 377 kts 352°
2026-04-25 22:03 -26.04323 -65.09708 25050 ft 374 kts 352°
2026-04-25 22:04 -26.01740 -65.09672 24606 ft 372 kts 352°
2026-04-25 22:04 -25.99160 -65.09637 24149 ft 370 kts 352°
2026-04-25 22:04 -25.96600 -65.09602 23711 ft 368 kts 352°
2026-04-25 22:04 -25.94039 -65.09566 23280 ft 366 kts 352°
2026-04-25 22:05 -25.91485 -65.09532 22852 ft 363 kts 352°
2026-04-25 22:05 -25.88942 -65.09497 22434 ft 361 kts 353°
2026-04-25 22:05 -25.86437 -65.09465 22011 ft 360 kts 353°
2026-04-25 22:05 -25.83900 -65.09434 21561 ft 360 kts 353°
2026-04-25 22:06 -25.81340 -65.09401 21069 ft 360 kts 354°
2026-04-25 22:06 -25.78823 -65.09367 20591 ft 360 kts 354°
2026-04-25 22:06 -25.76285 -65.09332 20123 ft 360 kts 354°
2026-04-25 22:06 -25.73787 -65.09298 19668 ft 359 kts 355°
2026-04-25 22:07 -25.71291 -65.09391 19185 ft 354 kts 346°
2026-04-25 22:07 -25.69712 -65.09770 18866 ft 349 kts 338°
2026-04-25 22:07 -25.66794 -65.11251 18249 ft 341 kts 326°
2026-04-25 22:07 -25.64767 -65.12569 17806 ft 340 kts 326°
2026-04-25 22:08 -25.62733 -65.13912 17350 ft 339 kts 326°
2026-04-25 22:08 -25.60702 -65.15250 16902 ft 337 kts 326°
2026-04-25 22:08 -25.58685 -65.16573 16463 ft 334 kts 326°
2026-04-25 22:08 -25.56686 -65.17882 16067 ft 333 kts 326°
2026-04-25 22:09 -25.54688 -65.19189 15631 ft 332 kts 326°
2026-04-25 22:09 -25.52712 -65.20479 15221 ft 330 kts 327°
2026-04-25 22:09 -25.50738 -65.21768 14799 ft 329 kts 327°
2026-04-25 22:09 -25.48761 -65.23058 14369 ft 329 kts 327°
2026-04-25 22:10 -25.46748 -65.24371 13923 ft 327 kts 327°
2026-04-25 22:10 -25.44810 -65.25633 13501 ft 326 kts 328°
2026-04-25 22:10 -25.42849 -65.26908 13098 ft 323 kts 328°
2026-04-25 22:10 -25.40926 -65.28159 12747 ft 322 kts 328°
2026-04-25 22:11 -25.38981 -65.29424 12353 ft 322 kts 328°
2026-04-25 22:11 -25.37064 -65.30671 11927 ft 321 kts 328°
2026-04-25 22:11 -25.35135 -65.31924 11534 ft 318 kts 328°
2026-04-25 22:11 -25.33249 -65.33149 11299 ft 310 kts 328°
2026-04-25 22:12 -25.31418 -65.34335 11160 ft 298 kts 329°
2026-04-25 22:12 -25.29662 -65.35474 11032 ft 286 kts 329°
2026-04-25 22:12 -25.27953 -65.36584 10781 ft 280 kts 329°
2026-04-25 22:12 -25.27391 -65.36948 10691 ft 278 kts 329°
2026-04-25 22:13 -25.24668 -65.38715 10299 ft 268 kts 329°
2026-04-25 22:13 -25.23069 -65.39752 10016 ft 264 kts 329°
2026-04-25 22:13 -25.21476 -65.40786 9702 ft 261 kts 329°
2026-04-25 22:13 -25.19917 -65.41798 9411 ft 258 kts 330°
2026-04-25 22:14 -25.18388 -65.42787 9146 ft 256 kts 330°
2026-04-25 22:14 -25.16836 -65.43793 8871 ft 253 kts 330°
2026-04-25 22:14 -25.15331 -65.44767 8587 ft 251 kts 330°
2026-04-25 22:14 -25.13834 -65.45743 8318 ft 248 kts 330°
2026-04-25 22:15 -25.12340 -65.46719 8057 ft 246 kts 330°
2026-04-25 22:15 -25.10876 -65.47672 7812 ft 243 kts 330°
2026-04-25 22:15 -25.09428 -65.48618 7601 ft 238 kts 330°
2026-04-25 22:16 -25.06622 -65.50444 7229 ft 231 kts 330°
2026-04-25 22:16 -25.05244 -65.51341 7045 ft 231 kts 330°
2026-04-25 22:16 -25.03841 -65.52215 6855 ft 230 kts 339°
2026-04-25 22:16 -25.02299 -65.52391 6748 ft 221 kts 13°
2026-04-25 22:17 -25.00840 -65.51985 6764 ft 209 kts 14°
2026-04-25 22:17 -24.99421 -65.51642 6646 ft 208 kts 12°
2026-04-25 22:17 -24.97996 -65.51330 6314 ft 210 kts 12°
2026-04-25 22:17 -24.96552 -65.51021 5995 ft 211 kts 12°
2026-04-25 22:18 -24.95128 -65.50713 5738 ft 204 kts 13°
2026-04-25 22:18 -24.93814 -65.50426 5380 ft 196 kts 13°
2026-04-25 22:18 -24.92512 -65.50141 5104 ft 184 kts 13°
2026-04-25 22:18 -24.91312 -65.49878 4910 ft 168 kts 13°
2026-04-25 22:19 -24.90198 -65.49622 4676 ft 154 kts 13°
2026-04-25 22:19 -24.89514 -65.49479 4518 ft 147 kts 14°
2026-04-25 22:19 -24.88228 -65.49203 4282 ft 135 kts 14°
2026-04-25 22:19 -24.87307 -65.49004 4144 ft 135 kts 14°
2026-04-25 22:20 -24.86425 -65.48806 4093 ft 114 kts 12°
2026-04-25 22:20 -24.85810 -65.48673 4093 ft 65 kts
2026-04-25 22:20 -24.85536 -65.48611 4093 ft 15 kts 12°
2026-04-25 22:20 -24.85428 -65.48585 4093 ft 15 kts 12°
2026-04-25 22:21 -24.85322 -65.48563 4093 ft 15 kts 11°
2026-04-25 22:21 -24.85213 -65.48540 4093 ft 15 kts 11°
2026-04-25 22:21 -24.85103 -65.48517 4093 ft 16 kts 11°
2026-04-25 22:21 -24.84994 -65.48492 4093 ft 16 kts 11°
2026-04-25 22:22 -24.84882 -65.48468 4093 ft 16 kts 11°
2026-04-25 22:22 -24.84777 -65.48445 4093 ft 13 kts 11°
2026-04-25 22:22 -24.84722 -65.48431 4093 ft 7 kts 21°
2026-04-25 22:22 -24.84675 -65.48396 4093 ft 8 kts 39°
2026-04-25 22:23 -24.84630 -65.48353 4093 ft 8 kts 42°
2026-04-25 22:23 -24.84599 -65.48299 4093 ft 8 kts 72°
2026-04-25 22:23 -24.84580 -65.48230 4093 ft 9 kts 72°
2026-04-25 22:23 -24.84559 -65.48157 4093 ft 10 kts 72°
2026-04-25 22:24 -24.84534 -65.48078 4093 ft 11 kts 71°
2026-04-25 22:24 -24.84512 -65.48007 4093 ft 7 kts 71°
2026-04-25 22:24 -24.84502 -65.47952 4093 ft 7 kts 94°
2026-04-25 22:24 -24.84518 -65.47890 4093 ft 8 kts 110°
2026-04-25 22:25 -24.84537 -65.47838 4093 ft 5 kts 112°
2026-04-25 22:25 -24.84532 -65.47810 4093 ft 4 kts 44°
2026-04-25 22:25 -24.84515 -65.47798 4093 ft 0 kts 26°